Location: Pianadetto
(44.4000°N, 10.1000°E)
Time: 21:02:52
(UTC+00:00)

Cosmos 1300 - Pass Details

Date: 26 May 2022
Orbit: 506 x 508 km, 82.5° (Epoch: 02 July)

Event Time Altitude Azimuth Distance (km) Brightness Sun altitude
Rises 00:57:29 0° 341° (NNW) 2,622 7.0 -20.6°
Reaches altitude 10° 00:59:47 10° 331° (NNW) 1,731 5.8 -20.4°
Enters shadow 01:02:46 30° 281° (W) 939 3.8 -20.2°
